NSZ41G ENGM-ESSA

Flight info

Callsign NSZ41G
Flight time N/A
Altitude 27000
Route MASEV Z183 LEGPO DCT ELTOK
Aircraft B738/M-SDE2E3FGHIRWXY/LB1

Departure

Time 2026-05-04 05:48
Airport Oslo-Gardermoen International Airport (ENGM)

Arrival

Time N/A
Airport Stockholm-Arlanda Airport (ESSA)
Time Latitude Longitude Altitude Speed Heading
2026-05-04 05:24 60.19473 11.10159 684 ft 0 kts 231°
2026-05-04 05:36 60.19484 11.10185 676 ft 4 kts 230°
2026-05-04 05:36 60.19501 11.10228 680 ft 4 kts 239°
2026-05-04 05:36 60.19511 11.10265 682 ft 4 kts 240°
2026-05-04 05:36 60.19525 11.10311 678 ft 4 kts 240°
2026-05-04 05:37 60.19536 11.10360 680 ft 4 kts 255°
2026-05-04 05:37 60.19538 11.10403 678 ft 3 kts 286°
2026-05-04 05:37 60.19530 11.10453 681 ft 4 kts 286°
2026-05-04 05:38 60.19516 11.10558 682 ft 4 kts 286°
2026-05-04 05:38 60.19508 11.10610 679 ft 4 kts 286°
2026-05-04 05:38 60.19501 11.10662 681 ft 3 kts 286°
2026-05-04 05:38 60.19499 11.10670 680 ft 1 kts 286°
2026-05-04 05:39 60.19500 11.10670 680 ft 0 kts 286°
2026-05-04 05:41 60.19504 11.10640 682 ft 5 kts 286°
2026-05-04 05:42 60.19518 11.10568 681 ft 6 kts 303°
2026-05-04 05:42 60.19557 11.10539 681 ft 8 kts
2026-05-04 05:42 60.19618 11.10570 682 ft 10 kts 16°
2026-05-04 05:42 60.19688 11.10611 682 ft 12 kts 17°
2026-05-04 05:43 60.19781 11.10665 681 ft 14 kts 15°
2026-05-04 05:43 60.19874 11.10718 680 ft 13 kts 16°
2026-05-04 05:43 60.19927 11.10834 683 ft 13 kts 97°
2026-05-04 05:45 60.19956 11.11592 685 ft 8 kts 15°
2026-05-04 05:45 60.20006 11.11621 685 ft 7 kts 16°
2026-05-04 05:47 60.19987 11.12151 688 ft 8 kts 166°
2026-05-04 05:47 60.19850 11.12094 681 ft 50 kts 195°
2026-05-04 05:47 60.19264 11.11758 682 ft 122 kts 196°
2026-05-04 05:48 60.18253 11.11163 761 ft 172 kts 196°
2026-05-04 05:48 60.17122 11.10600 1732 ft 159 kts 196°
2026-05-04 05:48 60.16074 11.10026 2656 ft 156 kts 200°
2026-05-04 05:48 60.14968 11.09405 3137 ft 178 kts 200°
2026-05-04 05:49 60.13648 11.08952 3510 ft 205 kts 184°
2026-05-04 05:49 60.12199 11.09735 3796 ft 234 kts 148°
2026-05-04 05:49 60.11051 11.12264 4077 ft 256 kts 128°
2026-05-04 05:49 60.09902 11.15164 4387 ft 277 kts 131°
2026-05-04 05:51 60.13041 11.37860 9725 ft 307 kts 40°
2026-05-04 05:51 60.14625 11.40891 10132 ft 325 kts 40°
2026-05-04 05:52 60.16318 11.44156 10334 ft 348 kts 41°
2026-05-04 05:52 60.18017 11.47769 10790 ft 362 kts 47°
2026-05-04 05:52 60.19617 11.51748 11432 ft 369 kts 49°
2026-05-04 05:52 60.21215 11.55845 12130 ft 374 kts 49°
2026-05-04 05:53 60.22831 11.59919 12808 ft 379 kts 48°
2026-05-04 05:54 60.26240 11.95713 17234 ft 410 kts 103°
2026-05-04 05:55 60.25614 12.01327 17848 ft 411 kts 110°
2026-05-04 05:55 60.24800 12.06856 18398 ft 413 kts 112°
2026-05-04 05:55 60.23927 12.12410 18939 ft 416 kts 112°
2026-05-04 05:55 60.23070 12.17906 19585 ft 416 kts 112°
2026-05-04 05:56 60.22218 12.23507 20125 ft 420 kts 112°
2026-05-04 05:56 60.21374 12.29183 20632 ft 424 kts 111°
2026-05-04 05:56 60.20534 12.34906 21150 ft 428 kts 111°
2026-05-04 05:56 60.19703 12.40591 21678 ft 431 kts 111°
2026-05-04 05:57 60.18850 12.46393 22208 ft 434 kts 112°
2026-05-04 05:57 60.17989 12.52221 22720 ft 437 kts 111°
2026-05-04 05:57 60.17286 12.58211 23230 ft 444 kts 104°
2026-05-04 05:57 60.16846 12.64353 23787 ft 444 kts 101°
2026-05-04 05:58 60.16513 12.70509 24388 ft 442 kts 100°
2026-05-04 05:58 60.16203 12.76640 24967 ft 440 kts 100°
2026-05-04 05:58 60.15879 12.82750 25489 ft 439 kts 101°
2026-05-04 05:58 60.15530 12.88833 26012 ft 438 kts 101°
2026-05-04 05:59 60.15160 12.94894 26569 ft 436 kts 102°
2026-05-04 05:59 60.14772 13.00970 26711 ft 441 kts 102°
2026-05-04 05:59 60.14378 13.06990 26719 ft 439 kts 102°
2026-05-04 05:59 60.13977 13.13029 26713 ft 435 kts 102°
2026-05-04 06:00 60.13574 13.19045 26723 ft 434 kts 102°
2026-05-04 06:00 60.13166 13.25069 26729 ft 436 kts 102°
2026-05-04 06:00 60.12756 13.31096 26734 ft 437 kts 102°
2026-05-04 06:00 60.12342 13.37152 26729 ft 437 kts 102°
2026-05-04 06:01 60.11929 13.43150 26696 ft 437 kts 102°
2026-05-04 06:01 60.11512 13.49186 26716 ft 436 kts 103°
2026-05-04 06:03 60.08545 13.90976 26725 ft 431 kts 103°
2026-05-04 06:03 60.08111 13.96926 26723 ft 430 kts 103°